Wind_Speed
37 34 31 29 28 28 26 8 3 16 27 3 3 5 7 5 6 8 7 2 3 3 4 3 5 3 4 7 2 3 2 3 1 3 2 0 3 1 3 4 3 1 4 5
38 35 32 32 34 36 19 4 2 19 13 8 7 4 7 4 5 6 7 7 6 1 1 1 2 2 2 7 4 2 1 2 2 5 5 4 4 1 1 3 3 6 6 5
41 38 38 37 37 37 20 4 2 3 4 2 14 12 6 11 6 5 5 6 4 3 1 1 1 1 3 5 4 1 2 2 5 5 4 2 2 2 2 3 3 3 6 5
43 42 42 40 40 40 18 2 5 5 9 13 6 14 9 13 6 6 8 4 7 6 5 4 3 2 3 5 5 5 3 1 2 2 2 2 2 5 8 4 5 5 6 7
46 47 44 40 41 40 10 4 3 1 3 8 12 6 6 13 11 8 5 5 8 7 6 6 6 5 2 1 2 2 3 2 2 4 2 3 7 9 10 12 10 9 7 11
49 49 45 45 46 41 6 7 3 3 3 5 11 12 8 14 6 6 8 8 4 5 10 7 12 9 8 5 6 4 3 4 3 4 4 5 7 11 10 9 7 7 10 11
52 52 48 49 47 39 14 3 3 3 2 6 8 9 12 14 8 9 8 7 8 5 5 5 5 2 6 7 6 6 6 6 3 2 3 2 7 6 8 8 2 4 4 10
54 53 51 51 46 38 17 4 2 2 2 3 7 11 8 16 11 5 8 6 7 8 5 4 3 4 4 4 6 6 5 5 2 3 2 7 10 9 4 6 3 2 8 8
57 53 53 50 45 42 17 10 5 3 4 1 6 2 8 6 10 3 4 2 8 6 3 3 6 5 4 5 3 5 6 4 5 3 3 6 5 5 6 2 2 2 7 9
56 52 51 48 41 38 26 5 5 4 3 3 4 3 2 3 3 4 3 5 2 5 3 3 4 6 4 5 7 5 4 2 9 3 5 7 8 10 2 2 5 5 8 7
57 54 52 45 40 33 24 11 6 4 3 3 5 5 4 3 3 4 2 4 4 3 3 3 3 3 7 4 5 7 6 7 4 3 2 11 6 2 6 6 3 7 7 8
57 55 50 41 36 33 23 10 9 4 7 3 2 4 11 6 2 1 4 1 2 4 3 2 3 2 2 5 3 2 4 7 6 8 7 5 4 5 5 6 7 7 8 6
51 52 44 38 36 32 25 19 18 9 3 3 4 2 3 7 7 10 2 3 3 3 2 4 3 4 4 4 5 5 3 4 5 4 6 10 8 4 5 6 7 7 8 9
44 43 40 37 35 33 24 22 18 12 6 2 4 4 1 3 2 4 8 2 5 2 1 2 2 2 3 4 4 5 6 6 5 4 6 4 5 6 6 6 5 6 6 8
39 39 36 33 31 30 22 18 15 12 5 4 2 3 2 3 3 2 6 7 2 3 3 2 2 2 2 2 2 3 3 5 4 5 7 5 5 4 4 6 6 9 10 7
34 31 30 30 30 31 21 3 7 11 8 3 1 3 1 2 6 4 3 4 3 3 1 2 2 3 2 1 3 5 5 4 5 3 2 3 5 6 3 7 9 8 8 9
34 34 32 31 33 30 8 5 9 20 9 3 2 3 2 2 2 1 1 0 1 3 3 3 2 3 3 2 4 4 6 4 5 6 3 4 5 5 4 4 11 20 16 18
34 33 32 32 32 26 9 5 18 24 9 4 3 3 3 3 2 0 1 1 1 1 2 2 3 0 2 5 6 10 11 11 12 13 9 6 5 5 6 4 8 8 8 9
33 32 31 30 13 7 9 19 22 13 4 4 3 3 4 2 1 1 2 1 1 1 3 3 3 3 6 6 7 8 10 10 10 9 7 6 7 7 7 6 7 9 10 8
33 31 7 2 13 26 22 4 3 3 3 1 3 3 4 3 2 1 1 1 3 4 5 2 4 9 15 6 7 8 7 9 10 7 8 5 5 7 8 7 8 12 14 16
7 3 2 14 37 11 2 3 4 3 2 4 4 6 5 3 3 3 3 2 2 3 4 6 3 4 5 14 18 16 19 18 15 8 8 8 8 8 8 8 10 17 19 19
12 16 13 10 4 3 5 4 4 5 6 5 6 5 4 3 3 3 3 3 2 5 1 3 4 4 7 10 13 13 11 11 12 15 13 15 13 17 13 10 11 20 31 25
18 4 4 4 3 5 7 8 5 4 4 5 5 5 4 2 2 2 3 4 5 0 1 4 4 3 7 5 5 7 7 9 7 9 11 15 16 22 17 13 20 22 24 28
2 4 5 4 5 4 4 9 10 5 5 7 9 4 4 3 3 3 5 5 2 3 3 5 3 9 8 6 3 2 7 7 8 8 10 11 10 10 16 19 20 24 21 29
4 3 5 5 4 4 4 4 3 3 8 9 6 3 3 3 3 4 3 3 5 6 4 4 5 6 6 6 6 8 8 8 6 6 6 6 7 9 12 12 19 23 24 27
3 4 3 2 3 1 2 4 6 5 8 6 2 4 4 5 4 5 7 5 6 4 4 4 2 4 6 6 7 7 7 7 7 6 1 2 4 5 5 9 15 22 28 29
4 5 3 2 1 4 3 4 5 4 9 4 4 6 8 2 3 4 5 5 5 4 4 3 4 4 4 7 7 6 6 5 5 5 7 5 7 10 12 6 9 17 20 25
Wind_Direction
196 194 192 186 186 178 164 142 178 182 162 151 197 188 168 216 230 203 225 279 245 222 303 340 17 42 14 339 316 62 61 126 145 82 347 42 108 88 123 119 205 115 145 270
198 192 188 181 178 171 156 138 169 178 181 203 196 184 208 213 222 189 184 206 203 62 215 298 8 73 12 17 50 95 329 15 60 356 346 357 68 333 77 86 66 186 142 255
197 192 185 182 180 177 167 127 157 223 209 217 198 187 196 210 240 216 180 185 154 146 143 88 229 307 44 22 53 70 94 109 142 188 229 181 298 268 230 137 114 205 213 224
196 192 185 183 183 181 177 143 214 188 206 196 183 195 182 198 229 210 163 218 188 168 186 194 163 292 19 16 12 1 96 135 344 111 9 349 263 275 285 238 197 185 237 212
195 190 185 184 186 182 182 159 155 30 161 159 186 179 205 203 192 177 216 170 198 186 186 181 197 146 114 242 332 359 24 243 99 315 303 299 280 262 248 260 259 248 242 258
194 193 187 186 186 177 162 196 253 127 193 167 189 203 196 202 196 258 206 186 174 185 235 213 213 188 171 197 188 203 124 115 83 263 344 359 308 251 236 239 220 216 243 241
192 192 188 190 188 182 168 159 203 113 227 166 197 210 204 221 221 222 207 180 181 224 131 70 57 84 183 196 207 162 144 120 102 229 22 309 242 285 283 240 272 213 111 145
192 191 189 192 188 182 184 110 102 119 123 167 187 221 204 220 237 226 231 209 181 147 76 76 65 344 344 272 224 189 166 126 127 177 186 292 296 273 251 185 226 199 132 122
190 188 190 192 187 185 176 92 70 92 119 22 306 198 211 191 212 207 220 90 121 81 104 114 170 196 199 220 190 28 95 104 147 129 172 239 245 286 352 39 256 164 131 142
189 186 193 192 188 189 191 140 120 78 108 343 14 66 275 338 144 163 150 173 90 75 116 118 167 220 208 212 182 169 119 54 199 147 214 274 240 270 349 103 241 158 154 159
185 187 193 188 186 185 178 155 128 136 101 326 11 14 23 352 22 146 269 83 349 52 181 144 177 216 212 201 188 170 156 160 191 133 154 256 218 328 201 204 148 157 162 171
182 186 184 185 181 183 169 143 169 101 81 182 312 45 70 48 32 151 345 219 132 168 137 156 152 233 223 163 227 159 196 179 181 182 207 236 219 214 263 164 160 177 167 171
177 177 178 178 177 177 174 158 151 142 77 350 14 57 309 11 42 31 100 21 343 41 176 158 201 226 144 170 230 196 253 146 175 104 240 242 248 239 186 173 162 171 177 167
170 169 171 174 174 169 163 150 157 154 107 120 278 328 355 321 325 81 56 78 350 303 79 111 148 183 168 216 224 185 200 141 180 254 282 268 269 202 189 218 183 177 160 172
165 167 172 169 165 164 158 142 153 165 143 175 253 288 280 246 225 232 148 180 140 16 23 44 255 283 358 326 47 255 198 180 158 225 230 177 238 120 141 157 198 192 166 152
155 159 165 167 166 162 139 56 184 159 127 98 86 312 300 325 194 204 228 225 158 129 274 205 266 266 81 274 228 245 233 183 155 222 241 217 259 272 184 205 211 189 176 164
161 165 166 164 163 152 121 166 161 173 130 87 9 335 303 246 238 245 287 227 193 152 190 201 190 269 131 203 232 266 242 259 255 242 210 220 213 237 291 215 219 194 188 180
155 155 153 156 152 141 116 84 156 153 103 71 114 268 342 173 171 250 206 147 62 302 217 341 183 194 158 242 224 222 235 270 282 273 255 207 223 224 254 241 161 166 175 174
151 148 144 138 145 133 116 132 138 148 107 149 158 188 222 174 102 114 1 123 89 175 199 230 135 221 224 207 192 209 214 213 232 250 257 236 226 262 268 187 183 177 190 181
139 131 95 110 149 142 118 96 65 26 346 91 187 168 196 150 118 171 152 317 237 186 227 163 199 240 240 199 204 212 218 227 237 246 259 260 244 238 253 202 196 200 196 187
104 105 129 144 136 109 78 153 150 144 212 214 207 189 150 228 137 176 200 217 216 241 250 177 250 267 223 209 218 227 237 244 249 230 231 221 213 215 226 236 205 202 190 189
135 122 127 131 88 134 156 156 161 182 209 197 187 199 147 178 129 123 187 195 195 256 161 149 255 259 228 213 223 231 228 227 236 234 235 247 240 230 230 230 231 199 203 194
116 96 140 166 161 180 167 152 155 190 206 184 163 135 142 135 149 152 162 197 227 311 206 232 226 262 261 234 228 238 232 232 236 259 251 251 251 256 235 233 243 220 188 182
122 153 145 185 160 192 182 182 183 205 135 144 150 133 144 170 138 148 191 214 143 256 240 229 231 222 240 253 232 194 264 258 242 255 257 246 248 261 263 254 246 185 170 171
169 172 184 179 208 185 192 176 111 182 142 144 146 66 119 166 170 194 181 165 237 220 225 224 237 244 248 261 258 250 258 267 274 245 237 250 268 265 275 249 201 181 165 160
154 186 198 193 114 278 102 177 194 175 159 142 83 148 184 207 187 164 202 191 218 236 214 228 248 250 254 260 264 254 252 246 231 224 263 251 238 185 157 149 166 168 164 158
196 212 209 181 104 176 178 158 183 138 154 173 135 181 208 137 183 203 190 210 220 213 246 233 229 231 251 272 279 262 207 202 177 163 180 174 165 152 139 122 138 154 163 165
Height
762 769 775 780 790 799 806 810 817 814 816 829 826 826 819 817 816 814 819 816 818 821 816 817 816 813 813 805 801 810 809 821 829 818 811 803 808 816 822 858 844 863 871 858
757 763 770 779 788 794 802 812 815 814 815 817 819 815 812 815 815 815 818 818 815 813 817 822 814 812 807 804 807 813 811 827 844 833 826 813 819 816 815 830 844 850 867 853
753 761 768 777 785 792 800 807 819 815 811 808 807 813 814 815 807 810 810 812 810 815 819 815 820 815 809 806 808 812 810 822 832 855 834 828 827 821 819 828 861 849 849 831
748 758 763 771 781 788 795 800 800 797 799 801 805 805 806 813 812 807 807 812 812 815 824 820 821 815 816 811 812 811 815 829 822 824 825 823 824 826 826 827 829 843 830 828
742 751 758 768 779 786 793 794 796 797 803 796 804 804 805 804 804 805 809 811 809 812 820 818 821 815 818 819 812 815 817 834 829 847 828 826 830 825 823 820 817 818 818 816
737 748 755 763 771 780 786 789 788 792 799 802 803 794 800 799 802 800 800 804 809 810 811 806 806 806 808 811 818 823 824 838 848 845 833 833 842 820 815 809 807 806 817 803
731 743 751 759 768 775 780 785 786 790 807 799 797 797 799 798 800 802 798 799 805 803 799 801 805 809 809 811 813 814 826 833 855 859 845 866 818 804 803 804 800 799 802 802
725 738 746 756 765 774 778 782 784 788 797 793 795 795 795 797 796 800 799 793 794 798 803 821 826 830 819 813 811 810 811 830 848 854 863 836 814 800 797 801 802 800 804 809
722 732 742 752 762 771 777 780 785 786 795 798 794 789 791 798 796 800 792 791 791 798 814 832 830 832 822 822 813 814 821 824 833 868 851 846 816 798 791 790 814 801 806 812
716 728 739 749 760 769 777 783 786 787 795 797 794 796 798 792 793 801 794 791 795 798 820 836 827 821 811 823 819 821 831 842 827 846 857 831 806 798 791 818 818 802 806 810
712 724 736 746 757 767 775 783 786 788 795 800 798 797 800 798 798 800 797 796 803 815 814 815 821 822 810 811 806 812 823 831 838 840 837 827 793 798 808 802 798 799 804 807
707 719 732 744 756 766 774 782 786 789 792 802 801 799 797 798 798 800 798 796 796 801 816 817 817 820 813 810 820 799 813 809 822 817 812 794 789 789 785 788 792 795 799 802
704 718 730 744 755 764 773 779 785 789 797 801 802 798 798 799 799 798 802 801 800 800 799 809 809 805 809 818 814 799 792 793 802 807 794 792 787 784 784 784 788 790 792 796
705 719 732 744 755 764 770 776 782 788 797 807 805 799 798 798 798 799 800 802 802 799 800 803 819 815 798 807 797 800 793 790 794 801 789 784 781 779 780 783 784 787 789 791
709 721 734 744 755 763 771 776 782 786 791 804 807 799 798 798 798 798 799 804 801 802 802 806 806 801 800 806 802 808 785 786 801 802 781 781 781 776 778 782 784 784 786 791
712 724 736 746 754 762 769 781 783 785 788 799 807 801 798 798 797 798 798 799 799 804 808 808 803 796 803 812 815 785 778 777 778 781 776 778 777 776 776 779 781 781 783 784
718 728 737 746 755 761 770 777 776 784 790 799 807 804 801 799 798 798 797 798 798 800 804 802 800 800 799 811 803 780 775 774 775 775 777 778 776 776 774 775 775 776 778 780
721 730 739 749 756 765 773 774 777 783 791 796 813 807 806 797 801 803 798 802 800 798 798 801 799 799 801 798 777 773 771 770 770 767 767 770 771 771 771 771 772 776 778 780
725 733 742 752 759 765 772 776 780 785 792 805 805 807 808 795 796 799 800 800 808 798 806 800 798 796 788 766 768 768 766 767 766 762 762 764 766 766 766 768 771 772 775 777
726 737 747 756 758 767 774 783 787 793 792 795 799 795 795 794 797 801 803 801 801 801 795 789 793 770 757 759 759 759 760 760 760 762 763 761 762 763 762 763 763 765 766 769
726 739 746 749 758 768 781 784 786 790 792 789 784 784 788 790 792 795 798 796 795 791 790 784 778 764 755 746 747 749 747 746 750 752 753 752 752 754 756 755 756 757 760 763
725 733 744 751 759 768 771 774 782 779 784 776 774 778 778 784 784 794 794 792 794 785 780 789 774 758 738 736 735 737 741 743 744 744 744 742 743 744 745 745 746 746 746 752
729 737 744 745 753 754 755 754 768 774 766 762 763 771 774 779 781 787 788 787 792 779 789 767 760 747 733 731 732 733 734 734 735 734 734 735 735 734 735 735 735 737 740 744
730 732 735 740 742 739 743 738 739 744 750 753 757 765 769 774 779 781 779 777 777 787 776 759 755 737 730 727 728 730 730 730 730 730 729 729 729 730 730 729 728 730 736 740
725 728 730 736 730 731 730 731 735 738 741 747 755 762 764 771 771 772 768 773 771 757 750 744 735 728 728 728 727 727 727 726 726 724 724 724 726 725 723 723 724 727 732 737
722 724 723 726 730 736 732 731 732 733 736 743 750 757 760 757 756 760 760 757 750 742 738 731 727 726 725 725 723 722 721 720 719 720 723 724 725 724 726 726 727 729 731 736
716 716 717 719 713 719 729 726 727 729 732 741 745 749 747 749 750 750 747 746 735 733 728 726 723 722 720 719 717 717 716 716 718 721 722 723 725 726 728 731 733 735 738 740